Northfield, Minnesota, United States (55057)
Lat: 44.46N, Lon: 93.16W
Wx Zone: MNZ077
Local Info
Past Weather Observations for Today

NOTE: This archive is for the closest National Weather Service station to Northfield. Information may differ from the station used for current weather conditions.

Click here for Long-term Archive

Time Weather Temperature Dewpoint Humidity Pressure Winds Precip Visibility
11:53
Overcast
23°F / -5°C 14°F / -10°C 68% 29.89 in
(1012 mb)
SSE 11.5 mph
(SSE 19 kph)
- 10SM
11:34
Mostly Cloudy
23°F / -5°C 14°F / -10°C 68% 29.95 in
(1014 mb)
SSE 8.1 mph
(SSE 13 kph)
- 10SM
11:13
Partly Cloudy
23°F / -5°C 14°F / -10°C 68% 29.95 in
(1014 mb)
SE 6.9 mph
(SE 11 kph)
- 10SM
10:54
Clear
23°F / -5°C 12°F / -11°C 63% 29.98 in
(1015 mb)
S 8.1 mph
(S 13 kph)
- 10SM
10:34
Partly Cloudy
21°F / -6°C 12°F / -11°C 68% 29.98 in
(1015 mb)
SSE 9.2 mph
(SSE 15 kph)
- 10SM
10:14
Clear
21°F / -6°C 12°F / -11°C 68% 29.95 in
(1014 mb)
SSE 6.9 mph
(SSE 11 kph)
- 10SM
09:54
Clear
19°F / -7°C 10°F / -12°C 68% 29.98 in
(1015 mb)
SSE 8.1 mph
(SSE 13 kph)
- 10SM
09:33
Clear
19°F / -7°C 10°F / -12°C 68% 29.95 in
(1014 mb)
SE 6.9 mph
(SE 11 kph)
- 10SM
09:14
Clear
18°F / -8°C 9°F / -13°C 68% 29.98 in
(1015 mb)
SE 5.8 mph
(SE 9 kph)
- 10SM
08:54
Clear
18°F / -8°C 9°F / -13°C 68% 29.98 in
(1015 mb)
SE 8.1 mph
(SE 13 kph)
- 10SM
08:33
Clear
18°F / -8°C 9°F / -13°C 68% 29.98 in
(1015 mb)
SE 6.9 mph
(SE 11 kph)
- 10SM
08:14
Clear
16°F / -9°C 9°F / -13°C 73% 29.98 in
(1015 mb)
SE 4.6 mph
(SE 7 kph)
- 10SM
07:54
Clear
16°F / -9°C 9°F / -13°C 73% 29.98 in
(1015 mb)
SE 4.6 mph
(SE 7 kph)
- 10SM
07:33
Partly Cloudy
18°F / -8°C 9°F / -13°C 68% 30.01 in
(1016 mb)
SSE 9.2 mph
(SSE 15 kph)
- 10SM
07:14
Mostly Cloudy
18°F / -8°C 9°F / -13°C 68% 30.01 in
(1016 mb)
SSE 8.1 mph
(SSE 13 kph)
- 10SM
06:54
Overcast
18°F / -8°C 9°F / -13°C 68% 30.01 in
(1016 mb)
SSE 6.9 mph
(SSE 11 kph)
- 10SM
06:34
Overcast
16°F / -9°C 9°F / -13°C 73% 30.01 in
(1016 mb)
SE 4.6 mph
(SE 7 kph)
- 10SM
06:14
Overcast
16°F / -9°C 9°F / -13°C 73% 30.01 in
(1016 mb)
SSE 4.6 mph
(SSE 7 kph)
- 10SM
05:53
Mostly Cloudy
14°F / -10°C 9°F / -13°C 79% 30.04 in
(1017 mb)
SE 4.6 mph
(SE 7 kph)
- 10SM
05:34
Overcast
14°F / -10°C 9°F / -13°C 79% 30.04 in
(1017 mb)
SE 3.5 mph
(SE 6 kph)
- 10SM
05:14
Mostly Cloudy
14°F / -10°C 7°F / -14°C 73% 30.04 in
(1017 mb)
SE 6.9 mph
(SE 11 kph)
- 10SM
04:53
Mostly Cloudy
14°F / -10°C 7°F / -14°C 73% 30.04 in
(1017 mb)
SE 6.9 mph
(SE 11 kph)
- 10SM
04:34
Overcast
14°F / -10°C 9°F / -13°C 79% 30.06 in
(1018 mb)
SE 9.2 mph
(SE 15 kph)
- 10SM
04:14
Overcast
14°F / -10°C 9°F / -13°C 79% 30.06 in
(1018 mb)
SE 6.9 mph
(SE 11 kph)
- 10SM
03:53
Overcast
12°F / -11°C 7°F / -14°C 79% 30.06 in
(1018 mb)
SE 9.2 mph
(SE 15 kph)
- 10SM
03:34
Overcast
12°F / -11°C 7°F / -14°C 79% 30.09 in
(1019 mb)
SE 8.1 mph
(SE 13 kph)
- 10SM
03:14
Overcast
12°F / -11°C 7°F / -14°C 79% 30.12 in
(1020 mb)
SE 6.9 mph
(SE 11 kph)
- 10SM
02:54
Overcast
12°F / -11°C 7°F / -14°C 79% 30.12 in
(1020 mb)
SE 8.1 mph
(SE 13 kph)
- 10SM
02:34
Overcast
Light Snow
12°F / -11°C 7°F / -14°C 79% 30.15 in
(1021 mb)
SE 8.1 mph
(SE 13 kph)
- 2SM
02:13
Overcast
Light Snow
10°F / -12°C 7°F / -14°C 85% 30.15 in
(1021 mb)
SE 5.8 mph
(SE 9 kph)
- 2 1/2SM
01:54
Overcast
Snow
10°F / -12°C 7°F / -14°C 85% 30.18 in
(1022 mb)
SE 5.8 mph
(SE 9 kph)
- 1 1/4SM
01:34
Overcast
Light Snow
10°F / -12°C 5°F / -15°C 79% 30.21 in
(1023 mb)
SE 5.8 mph
(SE 9 kph)
- 1 1/4SM
01:13
Overcast
Light Snow
10°F / -12°C 5°F / -15°C 79% 30.21 in
(1023 mb)
SE 4.6 mph
(SE 7 kph)
- 1 1/4SM
00:54
Overcast
Light Snow
10°F / -12°C 5°F / -15°C 79% 30.21 in
(1023 mb)
SE 3.5 mph
(SE 6 kph)
- 1 1/2SM
00:34
Overcast
Light Snow
9°F / -13°C 5°F / -15°C 85% 30.24 in
(1024 mb)
SE 3.5 mph
(SE 6 kph)
- 2SM
00:13
Overcast
Light Snow
9°F / -13°C 5°F / -15°C 85% 30.24 in
(1024 mb)
ESE 4.6 mph
(ESE 7 kph)
- 1 1/2SM
Time Weather Temperature Dewpoint Humidity Pressure Winds Precip Visibility


Weather for websites

WeatherForYou.com, LLC is not responsible for any damages or problems caused by this service. Current weather conditions are obtained from the closest station including government and personal stations which may have varying degrees of accuracy. Weather forecasts are derived from the NOAA NDFD. Like all things, this site belongs to Jesus Christ... He just trusts me to maintain it. If you have any questions or comments email webmaster@weatherforyou.com

Copyright © 2014, WeatherForYou.com LLC. All rights reserved.